Time,TemperatureF,DewpointF,PressureIn,WindDirection,WindDirectionDegrees,WindSpeedMPH,WindSpeedGustMPH,Humidity,HourlyPrecipIn,Conditions,Clouds,dailyrainin,SoftwareType,DateUTC
2013-02-10 00:00:00,18.2,9.8,30.18,NNW,332,23.0,35.0,69,0.00,,SKC,0.00,VWS V13.01,2013-02-10 05:00:00,
2013-02-10 00:01:00,18.2,9.8,30.18,NNW,334,28.0,35.0,69,0.00,,SKC,0.00,VWS V13.01,2013-02-10 05:01:00,
2013-02-10 00:06:00,18.2,10.1,30.18,NNW,328,16.0,31.0,70,0.00,,SKC,0.00,VWS V13.01,2013-02-10 05:06:00,
2013-02-10 00:11:00,18.1,9.7,30.18,North,355,24.0,30.0,69,0.00,,SKC,0.00,VWS V13.01,2013-02-10 05:11:00,
2013-02-10 00:16:00,18.0,9.6,30.18,NNW,344,23.0,35.0,69,0.00,,SKC,0.00,VWS V13.01,2013-02-10 05:16:00,
2013-02-10 00:21:00,17.9,9.5,30.19,NNW,343,23.0,23.0,69,0.00,,SKC,0.00,VWS V13.01,2013-02-10 05:21:00,
2013-02-10 00:26:00,17.8,9.4,30.19,NNW,342,24.0,29.0,69,0.00,,SKC,0.00,VWS V13.01,2013-02-10 05:26:00,
2013-02-10 00:31:00,17.9,9.5,30.19,NNW,348,14.0,29.0,69,0.00,,SKC,0.00,VWS V13.01,2013-02-10 05:31:00,
2013-02-10 00:36:00,17.9,9.1,30.19,NNW,332,25.0,31.0,68,0.00,,SKC,0.00,VWS V13.01,2013-02-10 05:36:00,
2013-02-10 00:41:00,17.9,9.1,30.19,NNW,331,19.0,30.0,68,0.00,,SKC,0.00,VWS V13.01,2013-02-10 05:41:00,
2013-02-10 00:46:00,17.9,9.5,30.19,NNW,339,24.0,35.0,69,0.00,,SKC,0.00,VWS V13.01,2013-02-10 05:46:00,
2013-02-10 00:51:00,17.8,9.4,30.19,NNW,338,18.0,22.0,69,0.00,,SKC,0.00,VWS V13.01,2013-02-10 05:51:00,
2013-02-10 00:56:00,17.8,9.4,30.20,NNW,339,23.0,31.0,69,0.00,,SKC,0.00,VWS V13.01,2013-02-10 05:56:00,
2013-02-10 01:01:00,17.9,9.5,30.20,NNW,333,19.0,24.0,69,0.00,,SKC,0.00,VWS V13.01,2013-02-10 06:01:00,
2013-02-10 01:06:00,17.9,9.5,30.20,NW,321,30.0,32.0,69,0.00,,SKC,0.00,VWS V13.01,2013-02-10 06:06:00,
2013-02-10 01:11:00,18.0,9.2,30.20,NNW,338,17.0,29.0,68,0.00,,SKC,0.00,VWS V13.01,2013-02-10 06:11:00,
2013-02-10 01:16:00,17.9,9.1,30.20,North,355,22.0,32.0,68,0.00,,SKC,0.00,VWS V13.01,2013-02-10 06:16:00,
2013-02-10 01:21:00,17.9,9.1,30.20,NNW,346,13.0,19.0,68,0.00,,SKC,0.00,VWS V13.01,2013-02-10 06:21:00,
2013-02-10 01:26:00,17.9,9.1,30.20,NNW,342,21.0,29.0,68,0.00,,SKC,0.00,VWS V13.01,2013-02-10 06:26:00,
2013-02-10 01:31:00,17.9,9.5,30.20,NNW,344,29.0,33.0,69,0.00,,SKC,0.00,VWS V13.01,2013-02-10 06:31:00,
2013-02-10 01:36:00,17.9,8.8,30.20,NNW,331,25.0,33.0,67,0.00,,SKC,0.00,VWS V13.01,2013-02-10 06:36:00,
2013-02-10 01:41:00,17.9,9.1,30.21,NNW,335,21.0,27.0,68,0.00,,SKC,0.00,VWS V13.01,2013-02-10 06:41:00,
2013-02-10 01:46:00,17.9,8.8,30.21,NNW,348,23.0,30.0,67,0.00,,SKC,0.00,VWS V13.01,2013-02-10 06:46:00,
2013-02-10 01:51:00,17.9,9.1,30.21,NNW,336,21.0,27.0,68,0.00,,SKC,0.00,VWS V13.01,2013-02-10 06:51:00,
2013-02-10 01:56:00,18.0,9.2,30.21,NNW,337,21.0,28.0,68,0.00,,SKC,0.00,VWS V13.01,2013-02-10 06:56:00,
2013-02-10 02:01:00,18.0,9.2,30.22,NNW,338,26.0,26.0,68,0.00,,SKC,0.00,VWS V13.01,2013-02-10 07:01:00,
2013-02-10 02:06:00,18.0,9.2,30.22,NNW,336,25.0,29.0,68,0.00,,SKC,0.00,VWS V13.01,2013-02-10 07:06:00,
2013-02-10 02:11:00,18.1,9.0,30.22,NNW,344,27.0,30.0,67,0.00,,SKC,0.00,VWS V13.01,2013-02-10 07:11:00,
2013-02-10 02:16:00,18.2,9.1,30.23,NNW,335,20.0,30.0,67,0.00,,SKC,0.00,VWS V13.01,2013-02-10 07:16:00,
2013-02-10 02:21:00,18.1,9.3,30.23,NNW,331,23.0,25.0,68,0.00,,SKC,0.00,VWS V13.01,2013-02-10 07:21:00,
2013-02-10 02:26:00,18.2,8.8,30.23,NNW,330,16.0,30.0,66,0.00,,SKC,0.00,VWS V13.01,2013-02-10 07:26:00,
2013-02-10 02:31:00,18.2,9.4,30.23,NNW,341,18.0,21.0,68,0.00,,SKC,0.00,VWS V13.01,2013-02-10 07:31:00,
2013-02-10 02:36:00,18.2,9.1,30.24,North,355,26.0,27.0,67,0.00,,SKC,0.00,VWS V13.01,2013-02-10 07:36:00,
2013-02-10 02:41:00,18.2,9.1,30.24,North,355,22.0,27.0,67,0.00,,SKC,0.00,VWS V13.01,2013-02-10 07:41:00,
2013-02-10 02:46:00,18.3,8.9,30.24,NNW,342,23.0,30.0,66,0.00,,SKC,0.00,VWS V13.01,2013-02-10 07:46:00,
2013-02-10 02:51:00,18.4,9.0,30.24,NNW,334,15.0,23.0,66,0.00,,SKC,0.00,VWS V13.01,2013-02-10 07:51:00,
2013-02-10 02:56:00,18.4,9.3,30.24,NW,314,21.0,27.0,67,0.00,,SKC,0.00,VWS V13.01,2013-02-10 07:56:00,
2013-02-10 03:01:00,18.4,9.0,30.25,NW,326,18.0,22.0,66,0.00,,SKC,0.00,VWS V13.01,2013-02-10 08:01:00,
2013-02-10 03:06:00,18.4,8.6,30.24,NNW,327,28.0,31.0,65,0.00,,SKC,0.00,VWS V13.01,2013-02-10 08:06:00,
2013-02-10 03:11:00,18.4,8.6,30.25,NNW,331,19.0,27.0,65,0.00,,SKC,0.00,VWS V13.01,2013-02-10 08:11:00,
2013-02-10 03:17:00,18.4,8.6,30.24,NNW,338,18.0,27.0,65,0.00,,SKC,0.00,VWS V13.01,2013-02-10 08:17:00,
2013-02-10 03:22:00,18.4,8.6,30.25,NNW,348,12.0,25.0,65,0.00,,SKC,0.00,VWS V13.01,2013-02-10 08:22:00,
2013-02-10 03:27:00,18.4,9.0,30.25,NNW,333,19.0,25.0,66,0.00,,SKC,0.00,VWS V13.01,2013-02-10 08:27:00,
2013-02-10 03:32:00,18.5,9.1,30.25,NNW,329,14.0,21.0,66,0.00,,SKC,0.00,VWS V13.01,2013-02-10 08:32:00,
2013-02-10 03:37:00,18.5,9.1,30.25,NNW,327,19.0,22.0,66,0.00,,SKC,0.00,VWS V13.01,2013-02-10 08:37:00,
2013-02-10 03:42:00,18.5,9.4,30.25,NNW,340,16.0,21.0,67,0.00,,SKC,0.00,VWS V13.01,2013-02-10 08:42:00,
2013-02-10 03:47:00,18.5,9.1,30.25,North,349,16.0,25.0,66,0.00,,SKC,0.00,VWS V13.01,2013-02-10 08:47:00,
2013-02-10 03:52:00,18.6,8.8,30.25,NNW,331,13.0,21.0,65,0.00,,SKC,0.00,VWS V13.01,2013-02-10 08:52:00,
2013-02-10 03:57:00,18.5,9.1,30.25,North,350,16.0,24.0,66,0.00,,SKC,0.00,VWS V13.01,2013-02-10 08:57:00,
2013-02-10 04:02:00,18.6,9.5,30.26,NNW,342,12.0,24.0,67,0.00,,SKC,0.00,VWS V13.01,2013-02-10 09:02:00,
2013-02-10 04:07:00,18.7,9.6,30.26,NNW,335,16.0,24.0,67,0.00,,SKC,0.00,VWS V13.01,2013-02-10 09:07:00,
2013-02-10 04:12:00,18.7,9.6,30.26,NNW,344,28.0,28.0,67,0.00,,SKC,0.00,VWS V13.01,2013-02-10 09:12:00,
2013-02-10 04:17:00,18.8,9.3,30.27,NNW,327,18.0,28.0,66,0.00,,SKC,0.00,VWS V13.01,2013-02-10 09:17:00,
2013-02-10 04:22:00,18.8,9.3,30.27,NNW,338,14.0,16.0,66,0.00,,SKC,0.00,VWS V13.01,2013-02-10 09:22:00,
2013-02-10 04:27:00,18.8,9.3,30.27,NNW,331,14.0,24.0,66,0.00,,SKC,0.00,VWS V13.01,2013-02-10 09:27:00,
2013-02-10 04:32:00,18.8,9.3,30.27,NNW,342,19.0,19.0,66,0.00,,SKC,0.00,VWS V13.01,2013-02-10 09:32:00,
2013-02-10 04:37:00,18.8,9.3,30.28,NNW,342,15.0,26.0,66,0.00,,SKC,0.00,VWS V13.01,2013-02-10 09:37:00,
2013-02-10 04:42:00,18.8,9.0,30.28,NNW,346,18.0,24.0,65,0.00,,SKC,0.00,VWS V13.01,2013-02-10 09:42:00,
2013-02-10 04:47:00,18.7,9.2,30.28,NNW,334,16.0,28.0,66,0.00,,SKC,0.00,VWS V13.01,2013-02-10 09:47:00,
2013-02-10 04:52:00,18.5,9.1,30.28,NW,319,19.0,27.0,66,0.00,,SKC,0.00,VWS V13.01,2013-02-10 09:52:00,
2013-02-10 04:57:00,18.4,9.0,30.28,NNW,343,24.0,27.0,66,0.00,,SKC,0.00,VWS V13.01,2013-02-10 09:57:00,
2013-02-10 05:02:00,18.3,9.2,30.28,North,355,17.0,23.0,67,0.00,,SKC,0.00,VWS V13.01,2013-02-10 10:02:00,
2013-02-10 05:07:00,18.3,9.2,30.28,NNW,331,17.0,26.0,67,0.00,,SKC,0.00,VWS V13.01,2013-02-10 10:07:00,
2013-02-10 05:12:00,18.3,8.9,30.28,NNW,333,18.0,25.0,66,0.00,,SKC,0.00,VWS V13.01,2013-02-10 10:12:00,
2013-02-10 05:17:00,18.6,9.1,30.28,NW,323,21.0,25.0,66,0.00,,SKC,0.00,VWS V13.01,2013-02-10 10:17:00,
2013-02-10 05:22:00,18.8,9.0,30.28,NNW,331,20.0,23.0,65,0.00,,SKC,0.00,VWS V13.01,2013-02-10 10:22:00,
2013-02-10 05:27:00,19.0,9.2,30.28,NNW,339,22.0,26.0,65,0.00,,SKC,0.00,VWS V13.01,2013-02-10 10:27:00,
2013-02-10 05:32:00,19.1,9.3,30.29,North,5,15.0,23.0,65,0.00,,SKC,0.00,VWS V13.01,2013-02-10 10:32:00,
2013-02-10 05:37:00,19.0,9.2,30.29,North,350,13.0,26.0,65,0.00,,SKC,0.00,VWS V13.01,2013-02-10 10:37:00,
2013-02-10 05:42:00,18.9,9.1,30.29,NNW,345,15.0,21.0,65,0.00,,SKC,0.00,VWS V13.01,2013-02-10 10:42:00,
2013-02-10 05:47:00,19.0,9.2,30.29,North,355,16.0,26.0,65,0.00,,SKC,0.00,VWS V13.01,2013-02-10 10:47:00,
2013-02-10 05:52:00,19.1,9.3,30.29,North,355,15.0,22.0,65,0.00,,SKC,0.00,VWS V13.01,2013-02-10 10:52:00,
2013-02-10 05:57:00,19.1,9.6,30.29,North,355,14.0,22.0,66,0.00,,SKC,0.00,VWS V13.01,2013-02-10 10:57:00,
2013-02-10 06:02:00,19.1,9.6,30.29,North,355,13.0,22.0,66,0.00,,SKC,0.00,VWS V13.01,2013-02-10 11:02:00,
2013-02-10 06:07:00,19.1,9.6,30.30,North,355,15.0,25.0,66,0.00,,SKC,0.00,VWS V13.01,2013-02-10 11:07:00,
2013-02-10 06:12:00,19.0,9.9,30.30,NNW,327,16.0,18.0,67,0.00,,SKC,0.00,VWS V13.01,2013-02-10 11:12:00,
2013-02-10 06:17:00,18.9,9.8,30.31,NNW,342,10.0,19.0,67,0.00,,SKC,0.00,VWS V13.01,2013-02-10 11:17:00,
2013-02-10 06:22:00,18.8,9.7,30.31,NNW,334,12.0,16.0,67,0.00,,SKC,0.00,VWS V13.01,2013-02-10 11:22:00,
2013-02-10 06:27:00,18.7,9.6,30.32,NNW,331,11.0,20.0,67,0.00,,SKC,0.00,VWS V13.01,2013-02-10 11:27:00,
2013-02-10 06:33:00,18.7,9.2,30.32,NNW,335,15.0,17.0,66,0.00,,SKC,0.00,VWS V13.01,2013-02-10 11:33:00,
2013-02-10 06:38:00,18.6,9.5,30.33,NNW,346,12.0,19.0,67,0.00,,SKC,0.00,VWS V13.01,2013-02-10 11:38:00,
2013-02-10 06:43:00,18.4,9.3,30.33,NNW,336,13.0,18.0,67,0.00,,SKC,0.00,VWS V13.01,2013-02-10 11:43:00,
2013-02-10 06:48:00,18.4,9.3,30.33,NNW,333,16.0,23.0,67,0.00,,SKC,0.00,VWS V13.01,2013-02-10 11:48:00,
2013-02-10 06:53:00,18.4,9.6,30.33,NNW,330,15.0,23.0,68,0.00,,SKC,0.00,VWS V13.01,2013-02-10 11:53:00,
2013-02-10 06:58:00,18.6,9.8,30.33,NNW,336,10.0,23.0,68,0.00,,SKC,0.00,VWS V13.01,2013-02-10 11:58:00,
2013-02-10 07:03:00,18.6,9.8,30.33,NNW,334,16.0,19.0,68,0.00,,SKC,0.00,VWS V13.01,2013-02-10 12:03:00,
2013-02-10 07:08:00,18.7,9.9,30.33,NNW,341,15.0,20.0,68,0.00,,SKC,0.00,VWS V13.01,2013-02-10 12:08:00,
2013-02-10 07:13:00,18.8,9.7,30.33,NNW,340,12.0,18.0,67,0.00,,SKC,0.00,VWS V13.01,2013-02-10 12:13:00,
2013-02-10 07:18:00,18.9,9.8,30.34,NNW,332,17.0,21.0,67,0.00,,SKC,0.00,VWS V13.01,2013-02-10 12:18:00,
2013-02-10 07:23:00,19.1,10.0,30.34,NNW,333,16.0,20.0,67,0.00,,SKC,0.00,VWS V13.01,2013-02-10 12:23:00,
2013-02-10 07:28:00,19.3,10.1,30.34,NNW,339,15.0,20.0,67,0.00,,SKC,0.00,VWS V13.01,2013-02-10 12:28:00,
2013-02-10 07:33:00,19.7,10.2,30.34,NNW,344,13.0,19.0,66,0.00,,SKC,0.00,VWS V13.01,2013-02-10 12:33:00,
2013-02-10 07:38:00,19.9,10.4,30.35,NNW,336,10.0,19.0,66,0.00,,SKC,0.00,VWS V13.01,2013-02-10 12:38:00,
2013-02-10 07:43:00,20.3,10.4,30.35,NNW,327,16.0,18.0,65,0.00,,SKC,0.00,VWS V13.01,2013-02-10 12:43:00,
2013-02-10 07:48:00,20.5,10.6,30.36,NNW,333,12.0,19.0,65,0.00,,SKC,0.00,VWS V13.01,2013-02-10 12:48:00,
2013-02-10 07:53:00,20.7,10.1,30.36,NNW,327,15.0,22.0,63,0.00,,SKC,0.00,VWS V13.01,2013-02-10 12:53:00,
2013-02-10 07:58:00,20.9,10.3,30.36,NW,317,17.0,23.0,63,0.00,,SKC,0.00,VWS V13.01,2013-02-10 12:58:00,
2013-02-10 08:03:00,21.2,10.6,30.36,NNW,332,14.0,19.0,63,0.00,,SKC,0.00,VWS V13.01,2013-02-10 13:03:00,
2013-02-10 08:08:00,21.5,11.2,30.36,NW,318,15.0,20.0,64,0.00,,SKC,0.00,VWS V13.01,2013-02-10 13:08:00,
2013-02-10 08:13:00,21.6,11.0,30.36,NNW,334,13.0,23.0,63,0.00,,SKC,0.00,VWS V13.01,2013-02-10 13:13:00,
2013-02-10 08:18:00,21.7,10.7,30.36,NNW,329,17.0,24.0,62,0.00,,SKC,0.00,VWS V13.01,2013-02-10 13:18:00,
2013-02-10 08:23:00,21.8,10.4,30.36,NNW,327,13.0,19.0,61,0.00,,SKC,0.00,VWS V13.01,2013-02-10 13:23:00,
2013-02-10 08:28:00,22.2,11.5,30.37,NNW,330,16.0,19.0,63,0.00,,SKC,0.00,VWS V13.01,2013-02-10 13:28:00,
2013-02-10 08:33:00,22.6,11.9,30.36,NNW,335,16.0,19.0,63,0.00,,SKC,0.00,VWS V13.01,2013-02-10 13:33:00,
2013-02-10 08:38:00,23.0,12.3,30.37,NW,319,13.0,19.0,63,0.00,,SKC,0.00,VWS V13.01,2013-02-10 13:38:00,
2013-02-10 08:43:00,23.2,12.1,30.37,NNW,330,17.0,19.0,62,0.00,,SKC,0.00,VWS V13.01,2013-02-10 13:43:00,
2013-02-10 08:48:00,23.4,11.9,30.37,NNW,333,8.0,19.0,61,0.00,,SKC,0.00,VWS V13.01,2013-02-10 13:48:00,
2013-02-10 08:53:00,23.6,11.8,30.37,NNW,333,13.0,19.0,60,0.00,,SKC,0.00,VWS V13.01,2013-02-10 13:53:00,
2013-02-10 08:58:00,23.7,12.2,30.37,NNW,331,11.0,19.0,61,0.00,,SKC,0.00,VWS V13.01,2013-02-10 13:58:00,
2013-02-10 09:03:00,23.8,12.0,30.37,NNW,331,13.0,17.0,60,0.00,,SKC,0.00,VWS V13.01,2013-02-10 14:03:00,
2013-02-10 09:08:00,23.8,11.6,30.37,NNW,346,11.0,18.0,59,0.00,,SKC,0.00,VWS V13.01,2013-02-10 14:08:00,
2013-02-10 09:13:00,24.0,12.1,30.37,NNW,331,11.0,16.0,60,0.00,,SKC,0.00,VWS V13.01,2013-02-10 14:13:00,
2013-02-10 09:19:00,24.3,12.4,30.37,NNW,341,14.0,18.0,60,0.00,,SKC,0.00,VWS V13.01,2013-02-10 14:19:00,
2013-02-10 09:24:00,24.2,11.9,30.37,NNW,338,9.0,19.0,59,0.00,,SKC,0.00,VWS V13.01,2013-02-10 14:24:00,
2013-02-10 09:29:00,24.4,12.5,30.37,NNW,337,11.0,19.0,60,0.00,,SKC,0.00,VWS V13.01,2013-02-10 14:29:00,
2013-02-10 09:34:00,24.6,12.3,30.37,NNW,346,14.0,18.0,59,0.00,,SKC,0.00,VWS V13.01,2013-02-10 14:34:00,
2013-02-10 09:39:00,24.8,12.5,30.37,North,360,13.0,18.0,59,0.00,,SKC,0.00,VWS V13.01,2013-02-10 14:39:00,
2013-02-10 09:44:00,25.2,12.9,30.37,North,5,13.0,17.0,59,0.00,,SKC,0.00,VWS V13.01,2013-02-10 14:44:00,
2013-02-10 09:49:00,25.4,13.1,30.36,North,350,16.0,17.0,59,0.00,,SKC,0.00,VWS V13.01,2013-02-10 14:49:00,
2013-02-10 09:54:00,25.7,13.4,30.36,NNE,16,17.0,20.0,59,0.00,,SKC,0.00,VWS V13.01,2013-02-10 14:54:00,
2013-02-10 09:59:00,26.0,14.0,30.36,North,360,15.0,20.0,60,0.00,,SKC,0.00,VWS V13.01,2013-02-10 14:59:00,
2013-02-10 10:04:00,26.1,14.5,30.37,North,11,14.0,17.0,61,0.00,,SKC,0.00,VWS V13.01,2013-02-10 15:04:00,
2013-02-10 10:09:00,26.3,13.1,30.37,North,355,15.0,19.0,57,0.00,,SKC,0.00,VWS V13.01,2013-02-10 15:09:00,
2013-02-10 10:14:00,26.4,13.6,30.37,North,9,16.0,18.0,58,0.00,,SKC,0.00,VWS V13.01,2013-02-10 15:14:00,
2013-02-10 10:19:00,26.6,14.2,30.38,NNW,340,15.0,18.0,59,0.00,,SKC,0.00,VWS V13.01,2013-02-10 15:19:00,
2013-02-10 10:24:00,26.9,14.5,30.38,NNW,329,13.0,16.0,59,0.00,,SKC,0.00,VWS V13.01,2013-02-10 15:24:00,
2013-02-10 10:29:00,27.6,15.2,30.38,NNW,336,17.0,17.0,59,0.00,,SKC,0.00,VWS V13.01,2013-02-10 15:29:00,
2013-02-10 10:34:00,27.6,14.4,30.39,NW,324,10.0,16.0,57,0.00,,SKC,0.00,VWS V13.01,2013-02-10 15:34:00,
2013-02-10 10:39:00,28.4,15.9,30.39,NW,325,8.0,16.0,59,0.00,,SKC,0.00,VWS V13.01,2013-02-10 15:39:00,
2013-02-10 10:44:00,28.7,14.6,30.39,NW,319,10.0,16.0,55,0.00,,SKC,0.00,VWS V13.01,2013-02-10 15:44:00,
2013-02-10 10:49:00,29.0,15.3,30.39,NW,320,11.0,16.0,56,0.00,,SKC,0.00,VWS V13.01,2013-02-10 15:49:00,
2013-02-10 10:54:00,29.3,15.1,30.39,NW,323,7.0,13.0,55,0.00,,SKC,0.00,VWS V13.01,2013-02-10 15:54:00,
2013-02-10 10:59:00,30.0,16.6,30.39,WNW,288,11.0,14.0,57,0.00,,SKC,0.00,VWS V13.01,2013-02-10 15:59:00,
2013-02-10 11:04:00,30.2,16.4,30.39,WNW,299,10.0,15.0,56,0.00,,SKC,0.00,VWS V13.01,2013-02-10 16:04:00,
2013-02-10 11:09:00,30.4,16.2,30.39,WNW,298,14.0,15.0,55,0.00,,SKC,0.00,VWS V13.01,2013-02-10 16:09:00,
2013-02-10 11:14:00,30.6,17.6,30.39,WNW,302,13.0,15.0,58,0.00,,SKC,0.00,VWS V13.01,2013-02-10 16:14:00,
2013-02-10 11:20:00,30.6,17.2,30.39,WNW,292,14.0,16.0,57,0.00,,SKC,0.00,VWS V13.01,2013-02-10 16:20:00,
2013-02-10 11:25:00,30.7,18.1,30.39,WNW,303,9.0,16.0,59,0.00,,SKC,0.00,VWS V13.01,2013-02-10 16:25:00,
2013-02-10 11:30:00,31.1,16.8,30.39,WNW,297,11.0,16.0,55,0.00,,SKC,0.00,VWS V13.01,2013-02-10 16:30:00,
2013-02-10 11:34:00,31.4,18.4,30.39,WNW,302,7.0,12.0,58,0.00,,SKC,0.00,VWS V13.01,2013-02-10 16:34:00,
2013-02-10 11:39:00,31.8,17.9,30.38,NW,309,10.0,14.0,56,0.00,,SKC,0.00,VWS V13.01,2013-02-10 16:39:00,
2013-02-10 11:45:00,31.9,18.8,30.38,NW,306,7.0,14.0,58,0.00,,SKC,0.00,VWS V13.01,2013-02-10 16:45:00,
2013-02-10 11:50:00,31.2,17.3,30.38,WNW,282,5.0,14.0,56,0.00,,SKC,0.00,VWS V13.01,2013-02-10 16:50:00,
2013-02-10 11:55:00,31.3,19.0,30.38,WNW,298,13.0,15.0,60,0.00,,SKC,0.00,VWS V13.01,2013-02-10 16:55:00,
2013-02-10 12:00:00,31.5,18.0,30.38,WNW,292,4.0,15.0,57,0.00,,SKC,0.00,VWS V13.01,2013-02-10 17:00:00,
2013-02-10 12:05:00,31.9,18.0,30.37,NW,313,15.0,18.0,56,0.00,,SKC,0.00,VWS V13.01,2013-02-10 17:05:00,
2013-02-10 12:10:00,32.1,17.8,30.38,WNW,302,11.0,18.0,55,0.00,,SKC,0.00,VWS V13.01,2013-02-10 17:10:00,
2013-02-10 12:15:00,32.2,17.9,30.37,WNW,293,13.0,15.0,55,0.00,,SKC,0.00,VWS V13.01,2013-02-10 17:15:00,
2013-02-10 12:20:00,31.5,17.2,30.37,West,264,3.0,15.0,55,0.00,,SKC,0.00,VWS V13.01,2013-02-10 17:20:00,
2013-02-10 12:25:00,31.7,18.6,30.37,WNW,303,11.0,13.0,58,0.00,,SKC,0.00,VWS V13.01,2013-02-10 17:25:00,
2013-02-10 12:30:00,32.4,18.9,30.37,WNW,298,4.0,15.0,57,0.00,,SKC,0.00,VWS V13.01,2013-02-10 17:30:00,
2013-02-10 12:35:00,32.4,17.6,30.36,WNW,288,10.0,16.0,54,0.00,,SKC,0.00,VWS V13.01,2013-02-10 17:35:00,
2013-02-10 12:40:00,32.7,19.2,30.36,West,267,12.0,16.0,57,0.00,,SKC,0.00,VWS V13.01,2013-02-10 17:40:00,
2013-02-10 12:45:00,32.3,18.8,30.36,West,277,13.0,16.0,57,0.00,,SKC,0.00,VWS V13.01,2013-02-10 17:45:00,
2013-02-10 12:50:00,32.5,19.0,30.36,WNW,294,4.0,16.0,57,0.00,,SKC,0.00,VWS V13.01,2013-02-10 17:50:00,
2013-02-10 12:55:00,33.2,20.0,30.36,West,269,12.0,15.0,58,0.00,,SKC,0.00,VWS V13.01,2013-02-10 17:55:00,
2013-02-10 13:00:00,33.2,19.6,30.36,WNW,294,7.0,15.0,57,0.00,,SKC,0.00,VWS V13.01,2013-02-10 18:00:00,
2013-02-10 13:05:00,33.7,19.3,30.36,WNW,302,13.0,13.0,55,0.00,,SKC,0.00,VWS V13.01,2013-02-10 18:05:00,
2013-02-10 13:10:00,33.9,19.0,30.36,WNW,287,13.0,15.0,54,0.00,,SKC,0.00,VWS V13.01,2013-02-10 18:10:00,
2013-02-10 13:16:00,33.8,18.5,30.35,West,281,11.0,15.0,53,0.00,,SKC,0.00,VWS V13.01,2013-02-10 18:16:00,
2013-02-10 13:21:00,33.5,17.3,30.35,West,273,4.0,15.0,51,0.00,,SKC,0.00,VWS V13.01,2013-02-10 18:21:00,
2013-02-10 13:26:00,34.1,19.6,30.35,WNW,286,3.0,11.0,55,0.00,,SKC,0.00,VWS V13.01,2013-02-10 18:26:00,
2013-02-10 13:31:00,34.3,19.8,30.35,WNW,302,7.0,13.0,55,0.00,,SKC,0.00,VWS V13.01,2013-02-10 18:31:00,
2013-02-10 13:36:00,34.3,20.2,30.35,West,277,5.0,10.0,56,0.00,,SKC,0.00,VWS V13.01,2013-02-10 18:36:00,
2013-02-10 13:41:00,34.1,20.1,30.35,WNW,285,11.0,11.0,56,0.00,,SKC,0.00,VWS V13.01,2013-02-10 18:41:00,
2013-02-10 13:46:00,34.4,19.0,30.35,West,269,11.0,14.0,53,0.00,,SKC,0.00,VWS V13.01,2013-02-10 18:46:00,
2013-02-10 13:51:00,34.5,20.0,30.34,West,281,8.0,10.0,55,0.00,,SKC,0.00,VWS V13.01,2013-02-10 18:51:00,
2013-02-10 13:56:00,34.1,18.8,30.35,West,263,8.0,12.0,53,0.00,,SKC,0.00,VWS V13.01,2013-02-10 18:56:00,
2013-02-10 14:01:00,33.8,20.2,30.34,West,261,5.0,10.0,57,0.00,,SKC,0.00,VWS V13.01,2013-02-10 19:01:00,
2013-02-10 14:06:00,33.9,21.1,30.34,West,279,5.0,11.0,59,0.00,,SKC,0.00,VWS V13.01,2013-02-10 19:06:00,
2013-02-10 14:11:00,34.0,20.4,30.35,West,263,6.0,7.0,57,0.00,,SKC,0.00,VWS V13.01,2013-02-10 19:11:00,
2013-02-10 14:16:00,33.5,20.3,30.35,WSW,253,11.0,13.0,58,0.00,,SKC,0.00,VWS V13.01,2013-02-10 19:16:00,
2013-02-10 14:21:00,33.1,19.5,30.35,WSW,257,7.0,12.0,57,0.00,,SKC,0.00,VWS V13.01,2013-02-10 19:21:00,
2013-02-10 14:26:00,32.9,19.4,30.35,SW,232,10.0,15.0,57,0.00,,SKC,0.00,VWS V13.01,2013-02-10 19:26:00,
2013-02-10 14:31:00,32.6,18.7,30.34,West,259,11.0,11.0,56,0.00,,SKC,0.00,VWS V13.01,2013-02-10 19:31:00,
2013-02-10 14:36:00,33.5,20.7,30.34,West,273,5.0,14.0,59,0.00,,SKC,0.00,VWS V13.01,2013-02-10 19:36:00,
2013-02-10 14:41:00,34.2,21.0,30.34,West,259,10.0,12.0,58,0.00,,SKC,0.00,VWS V13.01,2013-02-10 19:41:00,
2013-02-10 14:46:00,33.8,20.2,30.35,WSW,253,9.0,14.0,57,0.00,,SKC,0.00,VWS V13.01,2013-02-10 19:46:00,
2013-02-10 14:51:00,33.7,20.5,30.35,WSW,246,7.0,10.0,58,0.00,,SKC,0.00,VWS V13.01,2013-02-10 19:51:00,
2013-02-10 14:56:00,33.8,21.0,30.35,WSW,254,4.0,15.0,59,0.00,,SKC,0.00,VWS V13.01,2013-02-10 19:56:00,
2013-02-10 15:01:00,34.6,21.0,30.35,WSW,258,11.0,12.0,57,0.00,,SKC,0.00,VWS V13.01,2013-02-10 20:01:00,
2013-02-10 15:06:00,34.4,20.8,30.35,West,263,12.0,14.0,57,0.00,,SKC,0.00,VWS V13.01,2013-02-10 20:06:00,
2013-02-10 15:11:00,34.5,22.1,30.35,WNW,284,11.0,12.0,60,0.00,,SKC,0.00,VWS V13.01,2013-02-10 20:11:00,
2013-02-10 15:16:00,34.8,22.0,30.35,West,265,5.0,14.0,59,0.00,,SKC,0.00,VWS V13.01,2013-02-10 20:16:00,
2013-02-10 15:21:00,34.3,20.7,30.35,West,269,12.0,12.0,57,0.00,,SKC,0.00,VWS V13.01,2013-02-10 20:21:00,
2013-02-10 15:26:00,33.8,21.4,30.35,WSW,252,12.0,15.0,60,0.00,,SKC,0.00,VWS V13.01,2013-02-10 20:26:00,
2013-02-10 15:31:00,33.7,21.7,30.36,WSW,247,14.0,14.0,61,0.00,,SKC,0.00,VWS V13.01,2013-02-10 20:31:00,
2013-02-10 15:36:00,33.3,21.7,30.36,WSW,247,11.0,15.0,62,0.00,,SKC,0.00,VWS V13.01,2013-02-10 20:36:00,
2013-02-10 15:41:00,33.0,21.4,30.37,West,261,12.0,12.0,62,0.00,,SKC,0.00,VWS V13.01,2013-02-10 20:41:00,
2013-02-10 15:46:00,33.2,21.6,30.36,West,265,12.0,16.0,62,0.00,,SKC,0.00,VWS V13.01,2013-02-10 20:46:00,
2013-02-10 15:51:00,33.3,21.3,30.35,West,270,7.0,13.0,61,0.00,,SKC,0.00,VWS V13.01,2013-02-10 20:51:00,
2013-02-10 15:56:00,33.5,21.9,30.36,West,262,7.0,16.0,62,0.00,,SKC,0.00,VWS V13.01,2013-02-10 20:56:00,
2013-02-10 16:01:00,33.6,22.4,30.35,West,275,10.0,10.0,63,0.00,,SKC,0.00,VWS V13.01,2013-02-10 21:01:00,
2013-02-10 16:06:00,33.4,22.2,30.35,West,259,13.0,16.0,63,0.00,,SKC,0.00,VWS V13.01,2013-02-10 21:06:00,
2013-02-10 16:11:00,32.9,22.1,30.35,West,264,6.0,12.0,64,0.00,,SKC,0.00,VWS V13.01,2013-02-10 21:11:00,
2013-02-10 16:16:00,32.9,22.1,30.34,West,269,6.0,12.0,64,0.00,,SKC,0.00,VWS V13.01,2013-02-10 21:16:00,
2013-02-10 16:21:00,32.8,22.0,30.34,West,259,7.0,11.0,64,0.00,,SKC,0.00,VWS V13.01,2013-02-10 21:21:00,
2013-02-10 16:26:00,32.3,21.5,30.35,West,259,11.0,13.0,64,0.00,,SKC,0.00,VWS V13.01,2013-02-10 21:26:00,
2013-02-10 16:31:00,31.7,21.3,30.34,West,261,11.0,13.0,65,0.00,,SKC,0.00,VWS V13.01,2013-02-10 21:31:00,
2013-02-10 16:36:00,31.8,21.8,30.34,West,261,6.0,14.0,66,0.00,,SKC,0.00,VWS V13.01,2013-02-10 21:36:00,
2013-02-10 16:41:00,31.8,21.8,30.34,West,269,6.0,11.0,66,0.00,,SKC,0.00,VWS V13.01,2013-02-10 21:41:00,
2013-02-10 16:46:00,31.6,21.9,30.34,West,270,10.0,11.0,67,0.00,,SKC,0.00,VWS V13.01,2013-02-10 21:46:00,
2013-02-10 16:51:00,31.3,21.6,30.33,West,275,7.0,11.0,67,0.00,,SKC,0.00,VWS V13.01,2013-02-10 21:51:00,
2013-02-10 16:56:00,30.9,21.6,30.34,West,275,6.0,12.0,68,0.00,,SKC,0.00,VWS V13.01,2013-02-10 21:56:00,
2013-02-10 17:01:00,30.6,21.6,30.34,West,275,6.0,8.0,69,0.00,,SKC,0.00,VWS V13.01,2013-02-10 22:01:00,
2013-02-10 17:06:00,30.2,21.3,30.35,WSW,252,12.0,12.0,69,0.00,,SKC,0.00,VWS V13.01,2013-02-10 22:06:00,
2013-02-10 17:12:00,29.9,21.0,30.35,WSW,244,7.0,7.0,69,0.00,,SKC,0.00,VWS V13.01,2013-02-10 22:12:00,
2013-02-10 17:17:00,29.8,21.2,30.34,WSW,254,7.0,11.0,70,0.00,,SKC,0.00,VWS V13.01,2013-02-10 22:17:00,
2013-02-10 17:22:00,29.7,21.1,30.34,WSW,254,8.0,10.0,70,0.00,,SKC,0.00,VWS V13.01,2013-02-10 22:22:00,
2013-02-10 17:27:00,29.5,21.3,30.35,West,261,9.0,13.0,71,0.00,,SKC,0.00,VWS V13.01,2013-02-10 22:27:00,
2013-02-10 17:32:00,29.5,21.3,30.35,West,263,6.0,10.0,71,0.00,,SKC,0.00,VWS V13.01,2013-02-10 22:32:00,
2013-02-10 17:37:00,29.4,21.5,30.35,WSW,254,6.0,10.0,72,0.00,,SKC,0.00,VWS V13.01,2013-02-10 22:37:00,
2013-02-10 17:42:00,29.3,21.4,30.35,West,259,6.0,7.0,72,0.00,,SKC,0.00,VWS V13.01,2013-02-10 22:42:00,
2013-02-10 17:47:00,29.2,21.3,30.35,WSW,252,6.0,10.0,72,0.00,,SKC,0.00,VWS V13.01,2013-02-10 22:47:00,
2013-02-10 17:52:00,29.1,21.5,30.35,WSW,254,8.0,12.0,73,0.00,,SKC,0.00,VWS V13.01,2013-02-10 22:52:00,
2013-02-10 17:57:00,29.2,21.6,30.35,West,269,9.0,13.0,73,0.00,,SKC,0.00,VWS V13.01,2013-02-10 22:57:00,
2013-02-10 18:02:00,29.2,22.0,30.35,West,273,11.0,11.0,74,0.00,,SKC,0.00,VWS V13.01,2013-02-10 23:02:00,
2013-02-10 18:07:00,29.1,21.9,30.35,West,267,7.0,11.0,74,0.00,,SKC,0.00,VWS V13.01,2013-02-10 23:07:00,
2013-02-10 18:12:00,28.9,21.7,30.35,West,263,9.0,11.0,74,0.00,,SKC,0.00,VWS V13.01,2013-02-10 23:12:00,
2013-02-10 18:17:00,28.9,21.7,30.35,West,266,5.0,11.0,74,0.00,,SKC,0.00,VWS V13.01,2013-02-10 23:17:00,
2013-02-10 18:22:00,29.0,22.1,30.35,West,265,4.0,6.0,75,0.00,,SKC,0.00,VWS V13.01,2013-02-10 23:22:00,
2013-02-10 18:27:00,29.0,22.4,30.35,West,265,3.0,7.0,76,0.00,,SKC,0.00,VWS V13.01,2013-02-10 23:27:00,
2013-02-10 18:32:00,29.0,22.4,30.35,West,265,6.0,6.0,76,0.00,,SKC,0.00,VWS V13.01,2013-02-10 23:32:00,
2013-02-10 18:37:00,28.9,22.3,30.35,West,265,6.0,10.0,76,0.00,,SKC,0.00,VWS V13.01,2013-02-10 23:37:00,
2013-02-10 18:42:00,28.8,22.2,30.35,West,266,4.0,7.0,76,0.00,,SKC,0.00,VWS V13.01,2013-02-10 23:42:00,
2013-02-10 18:47:00,28.7,22.1,30.35,West,266,3.0,7.0,76,0.00,,SKC,0.00,VWS V13.01,2013-02-10 23:47:00,
2013-02-10 18:52:00,28.5,22.2,30.35,West,266,6.0,8.0,77,0.00,,SKC,0.00,VWS V13.01,2013-02-10 23:52:00,
2013-02-10 18:57:00,28.5,22.2,30.36,West,263,5.0,10.0,77,0.00,,SKC,0.00,VWS V13.01,2013-02-10 23:57:00,
2013-02-10 19:02:00,28.5,22.2,30.36,West,262,7.0,10.0,77,0.00,,SKC,0.00,VWS V13.01,2013-02-11 00:02:00,
2013-02-10 19:07:00,28.5,22.2,30.36,West,263,7.0,10.0,77,0.00,,SKC,0.00,VWS V13.01,2013-02-11 00:07:00,
2013-02-10 19:12:00,28.6,22.6,30.36,West,263,5.0,6.0,78,0.00,,SKC,0.00,VWS V13.01,2013-02-11 00:12:00,
2013-02-10 19:17:00,28.5,22.5,30.36,West,263,4.0,6.0,78,0.00,,SKC,0.00,VWS V13.01,2013-02-11 00:17:00,
2013-02-10 19:22:00,28.4,22.4,30.35,West,263,6.0,8.0,78,0.00,,SKC,0.00,VWS V13.01,2013-02-11 00:22:00,
2013-02-10 19:27:00,28.4,22.4,30.36,West,263,5.0,8.0,78,0.00,,SKC,0.00,VWS V13.01,2013-02-11 00:27:00,
2013-02-10 19:32:00,28.3,22.3,30.36,West,263,6.0,6.0,78,0.00,,SKC,0.00,VWS V13.01,2013-02-11 00:32:00,
2013-02-10 19:37:00,28.1,22.1,30.36,West,263,6.0,7.0,78,0.00,,SKC,0.00,VWS V13.01,2013-02-11 00:37:00,
2013-02-10 19:42:00,28.0,22.0,30.36,West,263,5.0,6.0,78,0.00,,SKC,0.00,VWS V13.01,2013-02-11 00:42:00,
2013-02-10 19:47:00,27.9,22.2,30.36,West,263,5.0,7.0,79,0.00,,SKC,0.00,VWS V13.01,2013-02-11 00:47:00,
2013-02-10 19:52:00,27.9,22.2,30.36,West,263,7.0,9.0,79,0.00,,SKC,0.00,VWS V13.01,2013-02-11 00:52:00,
2013-02-10 19:58:00,28.0,22.3,30.36,West,263,5.0,9.0,79,0.00,,SKC,0.00,VWS V13.01,2013-02-11 00:58:00,
2013-02-10 20:03:00,28.0,22.6,30.36,West,263,6.0,7.0,80,0.00,,SKC,0.00,VWS V13.01,2013-02-11 01:03:00,
2013-02-10 20:07:00,27.9,22.5,30.36,West,263,6.0,7.0,80,0.00,,SKC,0.00,VWS V13.01,2013-02-11 01:07:00,
2013-02-10 20:13:00,27.8,22.4,30.36,West,259,6.0,10.0,80,0.00,,SKC,0.00,VWS V13.01,2013-02-11 01:13:00,
2013-02-10 20:18:00,27.9,22.5,30.36,West,259,5.0,10.0,80,0.00,,SKC,0.00,VWS V13.01,2013-02-11 01:18:00,
2013-02-10 20:23:00,27.9,22.5,30.36,West,259,5.0,6.0,80,0.00,,SKC,0.00,VWS V13.01,2013-02-11 01:23:00,
2013-02-10 20:28:00,27.8,22.7,30.36,WSW,258,7.0,7.0,81,0.00,,SKC,0.00,VWS V13.01,2013-02-11 01:28:00,
2013-02-10 20:33:00,27.5,22.7,30.36,WSW,256,7.0,9.0,82,0.00,,SKC,0.00,VWS V13.01,2013-02-11 01:33:00,
2013-02-10 20:38:00,27.4,22.6,30.36,WSW,249,6.0,9.0,82,0.00,,SKC,0.00,VWS V13.01,2013-02-11 01:38:00,
2013-02-10 20:43:00,27.4,22.6,30.36,WSW,248,7.0,8.0,82,0.00,,SKC,0.00,VWS V13.01,2013-02-11 01:43:00,
2013-02-10 20:48:00,27.5,22.7,30.37,WSW,248,5.0,8.0,82,0.00,,SKC,0.00,VWS V13.01,2013-02-11 01:48:00,
2013-02-10 20:53:00,27.6,22.8,30.36,WSW,248,4.0,6.0,82,0.00,,SKC,0.00,VWS V13.01,2013-02-11 01:53:00,
2013-02-10 20:58:00,27.6,22.5,30.36,WSW,248,5.0,7.0,81,0.00,,SKC,0.00,VWS V13.01,2013-02-11 01:58:00,
2013-02-10 21:03:00,27.6,22.2,30.36,WSW,248,4.0,6.0,80,0.00,,SKC,0.00,VWS V13.01,2013-02-11 02:03:00,
2013-02-10 21:08:00,27.5,22.1,30.36,WSW,248,6.0,7.0,80,0.00,,SKC,0.00,VWS V13.01,2013-02-11 02:08:00,
2013-02-10 21:13:00,27.4,22.0,30.36,WSW,248,6.0,9.0,80,0.00,,SKC,0.00,VWS V13.01,2013-02-11 02:13:00,
2013-02-10 21:18:00,27.3,21.7,30.36,WSW,248,5.0,9.0,79,0.00,,SKC,0.00,VWS V13.01,2013-02-11 02:18:00,
2013-02-10 21:23:00,27.2,21.3,30.36,WSW,248,5.0,7.0,78,0.00,,SKC,0.00,VWS V13.01,2013-02-11 02:23:00,
2013-02-10 21:28:00,27.2,21.3,30.35,WSW,248,6.0,7.0,78,0.00,,SKC,0.00,VWS V13.01,2013-02-11 02:28:00,
2013-02-10 21:33:00,27.1,20.9,30.36,WSW,248,7.0,7.0,77,0.00,,SKC,0.00,VWS V13.01,2013-02-11 02:33:00,
2013-02-10 21:38:00,27.0,21.1,30.36,WSW,244,8.0,11.0,78,0.00,,SKC,0.00,VWS V13.01,2013-02-11 02:38:00,
2013-02-10 21:43:00,27.4,19.9,30.36,WSW,244,7.0,10.0,73,0.00,,SKC,0.00,VWS V13.01,2013-02-11 02:43:00,
2013-02-10 21:48:00,28.0,19.2,30.35,WSW,246,5.0,13.0,69,0.00,,SKC,0.00,VWS V13.01,2013-02-11 02:48:00,
2013-02-10 21:53:00,28.4,17.8,30.35,WSW,246,6.0,10.0,64,0.00,,SKC,0.00,VWS V13.01,2013-02-11 02:53:00,
2013-02-10 21:58:00,28.7,16.6,30.35,WSW,246,7.0,10.0,60,0.00,,SKC,0.00,VWS V13.01,2013-02-11 02:58:00,
2013-02-10 22:03:00,28.8,15.5,30.35,WSW,246,4.0,9.0,57,0.00,,SKC,0.00,VWS V13.01,2013-02-11 03:03:00,
2013-02-10 22:08:00,28.7,18.8,30.35,WSW,246,7.0,9.0,66,0.00,,SKC,0.00,VWS V13.01,2013-02-11 03:08:00,
2013-02-10 22:13:00,28.2,17.2,30.35,WSW,246,7.0,9.0,63,0.00,,SKC,0.00,VWS V13.01,2013-02-11 03:13:00,
2013-02-10 22:18:00,28.0,16.3,30.34,WSW,246,8.0,10.0,61,0.00,,SKC,0.00,VWS V13.01,2013-02-11 03:18:00,
2013-02-10 22:23:00,27.8,15.4,30.34,WSW,245,9.0,10.0,59,0.00,,SKC,0.00,VWS V13.01,2013-02-11 03:23:00,
2013-02-10 22:28:00,27.9,15.1,30.35,WSW,243,6.0,11.0,58,0.00,,SKC,0.00,VWS V13.01,2013-02-11 03:28:00,
2013-02-10 22:33:00,28.3,14.2,30.35,WSW,242,7.0,11.0,55,0.00,,SKC,0.00,VWS V13.01,2013-02-11 03:33:00,
2013-02-10 22:38:00,28.7,15.0,30.35,WSW,242,7.0,11.0,56,0.00,,SKC,0.00,VWS V13.01,2013-02-11 03:38:00,
2013-02-10 22:43:00,28.9,15.2,30.34,WSW,240,7.0,9.0,56,0.00,,SKC,0.00,VWS V13.01,2013-02-11 03:43:00,
2013-02-10 22:48:00,29.1,15.8,30.35,WSW,240,8.0,12.0,57,0.00,,SKC,0.00,VWS V13.01,2013-02-11 03:48:00,
2013-02-10 22:53:00,29.4,16.5,30.35,WSW,238,9.0,11.0,58,0.00,,SKC,0.00,VWS V13.01,2013-02-11 03:53:00,
2013-02-10 22:58:00,29.6,15.8,30.35,WSW,237,9.0,12.0,56,0.00,,SKC,0.00,VWS V13.01,2013-02-11 03:58:00,
2013-02-10 23:03:00,29.8,15.6,30.35,WSW,237,10.0,11.0,55,0.00,,SKC,0.00,VWS V13.01,2013-02-11 04:03:00,
2013-02-10 23:08:00,30.1,15.9,30.35,SW,236,10.0,12.0,55,0.00,,SKC,0.00,VWS V13.01,2013-02-11 04:08:00,
2013-02-10 23:13:00,30.3,16.5,30.35,WSW,237,8.0,11.0,56,0.00,,SKC,0.00,VWS V13.01,2013-02-11 04:13:00,
2013-02-10 23:18:00,30.5,17.9,30.35,WSW,238,7.0,12.0,59,0.00,,SKC,0.00,VWS V13.01,2013-02-11 04:18:00,
2013-02-10 23:23:00,30.7,16.9,30.35,SW,236,9.0,13.0,56,0.00,,SKC,0.00,VWS V13.01,2013-02-11 04:23:00,
2013-02-10 23:29:00,30.8,13.0,30.35,SW,236,6.0,13.0,47,0.00,,SKC,0.00,VWS V13.01,2013-02-11 04:29:00,
2013-02-10 23:34:00,30.8,13.9,30.34,SW,236,6.0,9.0,49,0.00,,SKC,0.00,VWS V13.01,2013-02-11 04:34:00,
2013-02-10 23:39:00,30.7,14.7,30.34,WSW,237,5.0,9.0,51,0.00,,SKC,0.00,VWS V13.01,2013-02-11 04:39:00,
2013-02-10 23:44:00,30.5,15.0,30.34,WSW,237,6.0,7.0,52,0.00,,SKC,0.00,VWS V13.01,2013-02-11 04:44:00,
2013-02-10 23:49:00,30.4,16.2,30.33,WSW,238,5.0,10.0,55,0.00,,SKC,0.00,VWS V13.01,2013-02-11 04:49:00,
2013-02-10 23:54:00,30.3,16.5,30.33,WSW,238,4.0,6.0,56,0.00,,SKC,0.00,VWS V13.01,2013-02-11 04:54:00,
2013-02-10 23:59:00,30.2,17.2,30.33,WSW,238,4.0,7.0,58,0.00,,SKC,0.00,VWS V13.01,2013-02-11 04:59:00,